Location: Bald Rock
(37.3738°N, 119.9354°W)
Time: 12:34:22
(UTC+00:00)

Cosmos 2333 Rocket - Pass Details

Date: 08 September 2024
Orbit: 840 x 862 km, 70.8° (Epoch: 11 October)

Event Time Altitude Azimuth Distance (km) Brightness Sun altitude
Rises 12:43:07 0° 334° (NNW) 3,433 5.3 -11.2°
Reaches altitude 10° 12:45:35 10° 332° (NNW) 2,490 4.5 -10.7°
Maximum altitude 12:51:16 68° 251° (WSW) 912 2.2 -9.7°
Drops below altitude 10° 12:56:52 10° 169° (S) 2,460 4.6 -8.6°
Sets 12:59:18 0° 167° (SSE) 3,388 5.3 -8.1°
